吉利星座2组09星 (GEESAT-2 09)

导读

GEESAT 2-09是中国于北京时间2024年2月2日8时成功发射的商业卫星,隶属于GEESAT 2系列。该卫星依托中国成熟的航天发射体系完成入轨部署,作为国产商业航天项目的组成部分,主要服务于对地观测领域,可提供遥感数据服务,支撑自然资源监测、生态环境监管等行业应用,进一步丰富了中国商业遥感卫星星座的服务能力。

基本信息
目录编号:
58913
目录名称:
GEESAT 2-09
国际标识:
2024-023J
轨道中心:
EARTH
卫星名称:
吉利星座2组09星
卫星全名:
吉利星座2组09星 (GEESAT-2 09)
卫星状态:
在轨 (已飞行952 天)
发射日期:
2024-02-02 UTC
国别 :
中国 (CN)
星等 :
--
该卫星已列入 空间交会检测服务 Space Conjunction Data Service (SCDS) ,当前飞行风险评估等级: 无高风险
轨道信息
数据来源 国际轨道数据 AOE轨道数据
星历时间 2026-09-11T13:51:44+0800
8小时前
查看轨道信息
2026-09-10T06:00:00+0800
1天前
查看轨道信息
半长轴 6996.648km 6996.637km
偏心率 0.0021327 0.0021783
轨道倾角 50.005° 50.004°
近地点辐角 336.571° 331.553°
升交点赤经 315.589° 321.740°
平近点角 23.425° 133.602°
近地点 603.589km 603.259km
远地点 633.433km 633.741km
周期 97.072分钟 97.072分钟
每日圈数 14.834323 14.83436
详细信息
平衡模式:
三轴稳定
覆盖范围:
全球
运营商:
时空道宇科技有限公司
运营商所在国:
中国
制造商(研发单位):
时空道宇科技有限公司
制造商所在国:
中国
使用方式:
暂无
卫星简介
吉利星座(GeeSAT)也称“吉利未来出行星座”,由吉利旗下时空道宇自主研发,布局硬核科技生态,赋能智慧出行、无人系统、智慧城市等领域,并将全面提升吉利控股旗下极氪、领克、远程新能源商用车等品牌的用户智能出行体验。通过“吉利未来出行星座”建设,吉利控股集团将构建天地一体化高精时空信息系统。该卫星仍在工作。
2D轨道图
3D轨道图
轨道高度分析图
轨道倾角分析图
轨道综合分析图
查看轨道综合分析图
与全量物体交会距离演化趋势
与全量物体交会风险概率演化趋势